TimeMDT,TemperatureF,Dew PointF,Humidity,Sea Level PressureIn,VisibilityMPH,Wind Direction,Wind SpeedMPH,Gust SpeedMPH,PrecipitationIn,Events,Conditions,WindDirDegrees,DateUTC
12:15 AM,46.4,24.8,43,30.15,10.0,East,10.4,-,N/A,,Clear,100,2012-10-03 06:15:00
12:35 AM,46.4,24.8,43,30.15,10.0,East,9.2,-,N/A,,Clear,90,2012-10-03 06:35:00
12:55 AM,44.6,24.8,46,30.15,10.0,Calm,Calm,-,N/A,,Clear,0,2012-10-03 06:55:00
1:15 AM,42.8,24.8,49,30.15,10.0,NNW,5.8,-,N/A,,Clear,340,2012-10-03 07:15:00
1:35 AM,42.8,24.8,49,30.15,10.0,North,10.4,-,N/A,,Clear,360,2012-10-03 07:35:00
1:55 AM,42.8,24.8,49,30.15,10.0,North,5.8,-,N/A,,Clear,360,2012-10-03 07:55:00
2:15 AM,42.8,24.8,49,30.15,10.0,NNE,6.9,-,N/A,,Clear,20,2012-10-03 08:15:00
2:35 AM,41.0,23.0,49,30.15,10.0,North,5.8,-,N/A,,Clear,360,2012-10-03 08:35:00
2:55 AM,42.8,24.8,49,30.15,10.0,Calm,Calm,-,N/A,,Clear,0,2012-10-03 08:55:00
3:15 AM,42.8,24.8,49,30.15,10.0,NNE,5.8,-,N/A,,Clear,20,2012-10-03 09:15:00
3:35 AM,39.2,21.2,49,30.15,10.0,NNE,6.9,-,N/A,,Clear,20,2012-10-03 09:35:00
3:55 AM,41.0,24.8,53,30.15,10.0,Calm,Calm,-,N/A,,Clear,0,2012-10-03 09:55:00
4:15 AM,37.4,21.2,52,30.15,10.0,North,8.1,-,N/A,,Clear,360,2012-10-03 10:15:00
4:55 AM,37.4,23.0,56,30.15,10.0,North,8.1,-,N/A,,Clear,10,2012-10-03 10:55:00
5:15 AM,35.6,23.0,60,30.16,10.0,North,5.8,-,N/A,,Clear,360,2012-10-03 11:15:00
5:35 AM,37.4,23.0,56,30.16,10.0,North,5.8,-,N/A,,Clear,360,2012-10-03 11:35:00
5:55 AM,37.4,23.0,56,30.17,10.0,North,8.1,-,N/A,,Clear,10,2012-10-03 11:55:00
6:15 AM,37.4,24.8,60,30.17,10.0,NE,5.8,-,N/A,,Clear,50,2012-10-03 12:15:00
6:35 AM,37.4,23.0,56,30.18,10.0,NNE,4.6,-,N/A,,Clear,20,2012-10-03 12:35:00
6:55 AM,39.2,24.8,56,30.18,10.0,NNE,3.5,-,N/A,,Clear,30,2012-10-03 12:55:00
7:15 AM,35.6,23.0,60,30.18,10.0,North,4.6,-,N/A,,Clear,10,2012-10-03 13:15:00
7:35 AM,35.6,23.0,60,30.19,10.0,North,8.1,-,N/A,,Clear,350,2012-10-03 13:35:00
7:55 AM,41.0,24.8,53,30.19,10.0,North,5.8,-,N/A,,Clear,10,2012-10-03 13:55:00
8:15 AM,42.8,26.6,53,30.19,10.0,Calm,Calm,-,N/A,,Clear,0,2012-10-03 14:15:00
8:35 AM,48.2,28.4,46,30.19,10.0,Calm,Calm,-,N/A,,Clear,0,2012-10-03 14:35:00
8:55 AM,50.0,28.4,43,30.20,10.0,NNW,3.5,-,N/A,,Clear,340,2012-10-03 14:55:00
9:15 AM,53.6,28.4,38,30.20,10.0,NNW,4.6,-,N/A,,Clear,340,2012-10-03 15:15:00
9:35 AM,55.4,28.4,36,30.21,10.0,North,3.5,-,N/A,,Clear,10,2012-10-03 15:35:00
9:55 AM,60.8,28.4,29,30.20,10.0,Calm,Calm,-,N/A,,Clear,0,2012-10-03 15:55:00
10:15 AM,62.6,28.4,27,30.20,10.0,Calm,Calm,-,N/A,,Clear,0,2012-10-03 16:15:00
10:35 AM,64.4,28.4,26,30.19,10.0,Calm,Calm,-,N/A,,Clear,0,2012-10-03 16:35:00
10:55 AM,66.2,28.4,24,30.18,10.0,SW,6.9,-,N/A,,Clear,230,2012-10-03 16:55:00
11:15 AM,66.2,28.4,24,30.18,10.0,South,4.6,-,N/A,,Clear,180,2012-10-03 17:15:00
11:55 AM,69.8,28.4,21,30.17,10.0,WSW,5.8,-,N/A,,Clear,240,2012-10-03 17:55:00
12:15 PM,69.8,26.6,20,30.17,10.0,WNW,3.5,-,N/A,,Clear,290,2012-10-03 18:15:00
12:35 PM,71.6,26.6,19,30.16,10.0,SW,9.2,-,N/A,,Clear,220,2012-10-03 18:35:00
12:55 PM,73.4,26.6,18,30.15,10.0,SW,12.7,16.1,N/A,,Clear,230,2012-10-03 18:55:00
1:15 PM,73.4,26.6,18,30.14,10.0,SE,3.5,-,N/A,,Clear,140,2012-10-03 19:15:00
1:35 PM,75.2,26.6,17,30.12,10.0,West,13.8,19.6,N/A,,Clear,260,2012-10-03 19:35:00
1:55 PM,75.2,24.8,15,30.11,10.0,WSW,9.2,-,N/A,,Clear,250,2012-10-03 19:55:00
2:15 PM,77.0,24.8,14,30.11,10.0,WSW,12.7,17.3,N/A,,Clear,250,2012-10-03 20:15:00
2:35 PM,77.0,23.0,13,30.11,5.0,West,15.0,21.9,N/A,,Clear,280,2012-10-03 20:35:00
2:55 PM,78.8,21.2,12,30.10,10.0,West,10.4,20.7,N/A,,Clear,270,2012-10-03 20:55:00
3:15 PM,78.8,21.2,12,30.10,10.0,WNW,15.0,21.9,N/A,,Clear,290,2012-10-03 21:15:00
3:35 PM,78.8,21.2,12,30.10,10.0,WNW,23.0,27.6,N/A,,Clear,300,2012-10-03 21:35:00
3:55 PM,78.8,21.2,12,30.10,10.0,WNW,13.8,20.7,N/A,,Clear,300,2012-10-03 21:55:00
4:15 PM,78.8,21.2,12,30.10,10.0,West,20.7,31.1,N/A,,Clear,270,2012-10-03 22:15:00
4:35 PM,77.0,21.2,12,30.10,10.0,WNW,23.0,27.6,N/A,,Clear,290,2012-10-03 22:35:00
4:55 PM,77.0,21.2,12,30.11,10.0,West,19.6,27.6,N/A,,Clear,280,2012-10-03 22:55:00
5:15 PM,75.2,21.2,13,30.11,10.0,West,17.3,26.5,N/A,,Clear,270,2012-10-03 23:15:00
5:35 PM,75.2,21.2,13,30.11,10.0,WNW,18.4,24.2,N/A,,Clear,290,2012-10-03 23:35:00
5:55 PM,73.4,21.2,14,30.11,10.0,West,20.7,25.3,N/A,,Clear,270,2012-10-03 23:55:00
6:15 PM,71.6,21.2,15,30.13,10.0,West,12.7,-,N/A,,Clear,280,2012-10-04 00:15:00
6:35 PM,69.8,21.2,16,30.13,10.0,West,13.8,21.9,N/A,,Clear,280,2012-10-04 00:35:00
6:55 PM,66.2,19.4,17,30.13,10.0,West,13.8,-,N/A,,Clear,280,2012-10-04 00:55:00
7:15 PM,64.4,19.4,18,30.14,10.0,West,9.2,-,N/A,,Clear,270,2012-10-04 01:15:00
7:35 PM,62.6,19.4,19,30.15,10.0,West,9.2,-,N/A,,Clear,270,2012-10-04 01:35:00
7:55 PM,62.6,19.4,19,30.16,10.0,West,9.2,-,N/A,,Clear,260,2012-10-04 01:55:00
8:15 PM,62.6,19.4,19,30.17,10.0,West,6.9,-,N/A,,Clear,270,2012-10-04 02:15:00
8:35 PM,55.4,17.6,23,30.18,10.0,East,5.8,-,N/A,,Clear,90,2012-10-04 02:35:00
8:55 PM,60.8,21.2,22,30.19,10.0,East,3.5,-,N/A,,Clear,100,2012-10-04 02:55:00
9:15 PM,57.2,17.6,21,30.20,10.0,East,9.2,-,N/A,,Clear,90,2012-10-04 03:15:00
9:35 PM,53.6,17.6,24,30.20,10.0,ESE,10.4,-,N/A,,Clear,110,2012-10-04 03:35:00
9:55 PM,55.4,19.4,25,30.21,10.0,ENE,9.2,-,N/A,,Clear,70,2012-10-04 03:55:00
10:15 PM,57.2,21.2,25,30.21,10.0,ESE,10.4,-,N/A,,Clear,120,2012-10-04 04:15:00
10:35 PM,57.2,19.4,23,30.22,10.0,ESE,5.8,-,N/A,,Clear,120,2012-10-04 04:35:00
10:55 PM,53.6,19.4,26,30.23,10.0,East,6.9,-,N/A,,Clear,90,2012-10-04 04:55:00
11:15 PM,55.4,21.2,26,30.23,10.0,NNE,8.1,-,N/A,,Clear,20,2012-10-04 05:15:00
11:35 PM,55.4,19.4,25,30.22,10.0,NNE,3.5,-,N/A,,Clear,20,2012-10-04 05:35:00
11:55 PM,48.2,15.8,27,30.23,10.0,SE,9.2,-,N/A,,Clear,130,2012-10-04 05:55:00